NOZ87FU LDSP-ENZV

Flight info

Callsign NOZ87FU
Flight time 2h 47m
Altitude 36000
Route SIRMI DCT KOREX DCT SIMBA DCT ABGUS DCT ATTUS DCT RIVEX
Aircraft B738/M-SADE3GHIJ1LRWXY/LB1

Departure

Time 2026-04-16 12:11
Airport Split Saint Jerome Airport (LDSP)

Arrival

Time 2026-04-16 14:58
Airport Stavanger Airport, Sola (ENZV)
Time Latitude Longitude Altitude Speed Heading
2026-04-16 11:37 43.53762 16.29931 67 ft 0 kts 114°
2026-04-16 12:05 43.53761 16.29934 67 ft 1 kts 107°
2026-04-16 12:05 43.53770 16.29946 61 ft 3 kts 15°
2026-04-16 12:05 43.53802 16.29930 64 ft 7 kts 339°
2026-04-16 12:05 43.53844 16.29951 62 ft 7 kts 48°
2026-04-16 12:06 43.53874 16.30003 65 ft 7 kts 53°
2026-04-16 12:06 43.53908 16.30052 67 ft 7 kts 36°
2026-04-16 12:06 43.53954 16.30076 69 ft 7 kts 17°
2026-04-16 12:06 43.54002 16.30096 67 ft 8 kts 17°
2026-04-16 12:07 43.54069 16.30127 74 ft 12 kts 27°
2026-04-16 12:07 43.54133 16.30224 70 ft 15 kts 53°
2026-04-16 12:07 43.54201 16.30345 62 ft 17 kts 52°
2026-04-16 12:07 43.54262 16.30456 62 ft 13 kts 53°
2026-04-16 12:08 43.54322 16.30566 55 ft 15 kts 52°
2026-04-16 12:08 43.54384 16.30675 58 ft 14 kts 52°
2026-04-16 12:08 43.54442 16.30779 61 ft 13 kts 52°
2026-04-16 12:08 43.54497 16.30879 56 ft 13 kts 53°
2026-04-16 12:09 43.54548 16.30980 55 ft 13 kts 69°
2026-04-16 12:09 43.54565 16.31054 56 ft 5 kts 24°
2026-04-16 12:09 43.54573 16.31017 61 ft 5 kts 250°
2026-04-16 12:09 43.54560 16.30992 56 ft 0 kts 233°
2026-04-16 12:10 43.54558 16.30987 56 ft 3 kts 233°
2026-04-16 12:10 43.54462 16.30813 52 ft 55 kts 232°
2026-04-16 12:10 43.54089 16.30144 70 ft 118 kts 232°
2026-04-16 12:10 43.53479 16.29044 116 ft 166 kts 232°
2026-04-16 12:11 43.52751 16.27754 729 ft 174 kts 230°
2026-04-16 12:11 43.51960 16.26447 1366 ft 186 kts 230°
2026-04-16 12:11 43.51059 16.24988 1651 ft 213 kts 230°
2026-04-16 12:11 43.50025 16.23328 1846 ft 243 kts 230°
2026-04-16 12:12 43.48889 16.21506 2514 ft 256 kts 230°
2026-04-16 12:12 43.47731 16.19638 3433 ft 260 kts 229°
2026-04-16 12:12 43.46681 16.17605 4152 ft 270 kts 249°
2026-04-16 12:12 43.46438 16.15055 4945 ft 274 kts 278°
2026-04-16 12:13 43.47012 16.12549 5743 ft 276 kts 301°
2026-04-16 12:13 43.48251 16.10563 6637 ft 276 kts 323°
2026-04-16 12:13 43.49794 16.08971 7439 ft 279 kts 326°
2026-04-16 12:13 43.51370 16.07387 8274 ft 282 kts 328°
2026-04-16 12:14 43.53176 16.06373 9024 ft 284 kts 358°
2026-04-16 12:14 43.55088 16.06798 9916 ft 279 kts 19°
2026-04-16 12:14 43.56971 16.07597 10515 ft 291 kts 18°
2026-04-16 12:14 43.58994 16.08451 10690 ft 316 kts 18°
2026-04-16 12:15 43.61173 16.09352 11027 ft 334 kts 17°
2026-04-16 12:15 43.63431 16.10265 11673 ft 340 kts 17°
2026-04-16 12:15 43.65719 16.11175 12402 ft 345 kts 17°
2026-04-16 12:15 43.68053 16.12092 13100 ft 350 kts 16°
2026-04-16 12:16 43.70405 16.13009 13881 ft 353 kts 16°
2026-04-16 12:16 43.71982 16.13622 14304 ft 356 kts 16°
2026-04-16 12:16 43.74385 16.14555 14938 ft 361 kts 16°
2026-04-16 12:16 43.76805 16.15494 15629 ft 363 kts 16°
2026-04-16 12:17 43.79249 16.16441 16279 ft 367 kts 15°
2026-04-16 12:17 43.81723 16.17401 16883 ft 371 kts 15°
2026-04-16 12:17 43.84222 16.18372 17555 ft 374 kts 15°
2026-04-16 12:17 43.86713 16.19341 18175 ft 379 kts 15°
2026-04-16 12:18 43.89265 16.20333 18706 ft 383 kts 15°
2026-04-16 12:18 43.91834 16.21334 19307 ft 385 kts 15°
2026-04-16 12:18 43.94421 16.22342 19856 ft 388 kts 15°
2026-04-16 12:18 43.96480 16.23146 20268 ft 391 kts 15°
2026-04-16 12:19 43.99033 16.24143 20809 ft 394 kts 15°
2026-04-16 12:19 44.01677 16.25176 21324 ft 397 kts 15°
2026-04-16 12:19 44.04355 16.26225 21802 ft 402 kts 14°
2026-04-16 12:19 44.07062 16.27284 22273 ft 406 kts 14°
2026-04-16 12:20 44.09794 16.28355 22795 ft 409 kts 14°
2026-04-16 12:20 44.12565 16.29313 23273 ft 412 kts
2026-04-16 12:20 44.15421 16.29226 23719 ft 413 kts 347°
2026-04-16 12:20 44.18128 16.27928 24137 ft 413 kts 330°
2026-04-16 12:21 44.20577 16.25856 24607 ft 413 kts 327°
2026-04-16 12:21 44.23021 16.23713 25003 ft 416 kts 327°
2026-04-16 12:21 44.25444 16.21588 25427 ft 418 kts 327°
2026-04-16 12:21 44.27920 16.19428 25780 ft 422 kts 328°
2026-04-16 12:22 44.30428 16.17256 26101 ft 426 kts 328°
2026-04-16 12:22 44.32956 16.15078 26506 ft 428 kts 328°
2026-04-16 12:22 44.35500 16.12892 26886 ft 430 kts 329°
2026-04-16 12:22 44.38057 16.10697 27257 ft 432 kts 329°
2026-04-16 12:23 44.40625 16.08492 27644 ft 434 kts 329°
2026-04-16 12:23 44.43203 16.06276 27990 ft 437 kts 329°
2026-04-16 12:23 44.45796 16.04044 28377 ft 438 kts 330°
2026-04-16 12:23 44.47771 16.02343 28667 ft 439 kts 330°
2026-04-16 12:24 44.50388 16.00087 28971 ft 442 kts 330°
2026-04-16 12:24 44.53012 15.97821 29257 ft 445 kts 330°
2026-04-16 12:24 44.55657 15.95535 29580 ft 447 kts 330°
2026-04-16 12:24 44.58305 15.93242 29981 ft 447 kts 330°
2026-04-16 12:25 44.60949 15.90951 30335 ft 448 kts 330°
2026-04-16 12:25 44.63596 15.88655 30716 ft 446 kts 330°
2026-04-16 12:25 44.66232 15.86364 31096 ft 445 kts 330°
2026-04-16 12:25 44.68864 15.84076 31409 ft 445 kts 330°
2026-04-16 12:26 44.71495 15.81788 31764 ft 444 kts 330°
2026-04-16 12:26 44.74119 15.79503 32075 ft 445 kts 330°
2026-04-16 12:26 44.76753 15.77208 32365 ft 445 kts 331°
2026-04-16 12:26 44.79425 15.75034 32768 ft 442 kts 333°
2026-04-16 12:27 44.82129 15.72993 33161 ft 439 kts 335°
2026-04-16 12:27 44.84820 15.71027 33657 ft 435 kts 335°
2026-04-16 12:27 44.87518 15.69072 33857 ft 437 kts 335°
2026-04-16 12:27 44.90233 15.67097 34026 ft 440 kts 334°
2026-04-16 12:28 44.92954 15.65104 34237 ft 442 kts 333°
2026-04-16 12:28 44.95672 15.63097 34587 ft 439 kts 333°
2026-04-16 12:28 44.98366 15.61095 34930 ft 436 kts 334°
2026-04-16 12:28 45.00399 15.59579 35153 ft 435 kts 334°
2026-04-16 12:29 45.03071 15.57583 35397 ft 435 kts 333°
2026-04-16 12:29 45.05750 15.55578 35583 ft 436 kts 333°
2026-04-16 12:29 45.08424 15.53575 35788 ft 436 kts 333°
2026-04-16 12:29 45.11106 15.51562 36030 ft 435 kts 333°
2026-04-16 12:30 45.13766 15.49564 36170 ft 434 kts 332°
2026-04-16 12:30 45.16424 15.47566 36180 ft 432 kts 332°
2026-04-16 12:30 45.21682 15.43607 36175 ft 429 kts 332°
2026-04-16 12:31 45.26980 15.39611 36159 ft 428 kts 332°
2026-04-16 12:31 45.32199 15.35665 36171 ft 427 kts 332°
2026-04-16 12:32 45.37435 15.31699 36171 ft 427 kts 332°
2026-04-16 12:32 45.42671 15.27724 36177 ft 427 kts 332°
2026-04-16 12:33 45.47907 15.23740 36182 ft 427 kts 332°
2026-04-16 12:33 45.52517 15.20226 36188 ft 428 kts 332°
2026-04-16 12:34 45.57782 15.16205 36180 ft 430 kts 331°
2026-04-16 12:34 45.63024 15.12192 36189 ft 431 kts 331°
2026-04-16 12:35 45.68313 15.08135 36181 ft 432 kts 331°
2026-04-16 12:35 45.73606 15.04066 36176 ft 432 kts 330°
2026-04-16 12:36 45.78915 14.99975 36189 ft 433 kts 330°
2026-04-16 12:36 45.84228 14.95873 36189 ft 434 kts 330°
2026-04-16 12:37 45.89544 14.91760 36174 ft 434 kts 330°
2026-04-16 12:37 45.94845 14.87648 36182 ft 433 kts 330°
2026-04-16 12:38 46.00110 14.83556 36176 ft 433 kts 330°
2026-04-16 12:38 46.04735 14.79955 36181 ft 432 kts 330°
2026-04-16 12:39 46.10027 14.75825 36179 ft 433 kts 330°
2026-04-16 12:39 46.15314 14.71689 36182 ft 432 kts 330°
2026-04-16 12:40 46.20593 14.67551 36183 ft 431 kts 330°
2026-04-16 12:40 46.25865 14.63411 36195 ft 431 kts 329°
2026-04-16 12:41 46.31128 14.59267 36176 ft 430 kts 329°
2026-04-16 12:41 46.36376 14.55125 36164 ft 429 kts 329°
2026-04-16 12:42 46.41604 14.50991 36182 ft 428 kts 329°
2026-04-16 12:42 46.46841 14.46840 36197 ft 429 kts 329°
2026-04-16 12:43 46.52084 14.42676 36173 ft 430 kts 329°
2026-04-16 12:43 46.56711 14.38993 36184 ft 430 kts 329°
2026-04-16 12:44 46.61964 14.34802 36190 ft 431 kts 329°
2026-04-16 12:44 46.67219 14.30602 36195 ft 432 kts 328°
2026-04-16 12:45 46.72486 14.26382 36193 ft 432 kts 328°
2026-04-16 12:45 46.77754 14.22151 36186 ft 433 kts 328°
2026-04-16 12:46 46.82993 14.17935 36189 ft 432 kts 328°
2026-04-16 12:46 46.88290 14.13663 36180 ft 432 kts 328°
2026-04-16 12:47 46.93543 14.09416 36215 ft 431 kts 328°
2026-04-16 12:47 46.98760 14.05189 36207 ft 431 kts 327°
2026-04-16 12:48 47.04000 14.00934 36203 ft 431 kts 327°
2026-04-16 12:48 47.08603 13.97187 36193 ft 430 kts 327°
2026-04-16 12:49 47.13831 13.92923 36213 ft 429 kts 327°
2026-04-16 12:49 47.19046 13.88661 36203 ft 429 kts 327°
2026-04-16 12:50 47.24257 13.84392 36213 ft 428 kts 327°
2026-04-16 12:50 47.29452 13.80126 36222 ft 428 kts 327°
2026-04-16 12:51 47.34656 13.75843 36221 ft 428 kts 327°
2026-04-16 12:51 47.39851 13.71557 36228 ft 427 kts 327°
2026-04-16 12:52 47.45033 13.67272 36241 ft 427 kts 327°
2026-04-16 12:52 47.50218 13.62976 36239 ft 427 kts 327°
2026-04-16 12:53 47.55355 13.58710 36244 ft 426 kts 327°
2026-04-16 12:53 47.59854 13.54965 36256 ft 426 kts 327°
2026-04-16 12:54 47.65058 13.50623 36272 ft 427 kts 327°
2026-04-16 12:54 47.70226 13.46303 36262 ft 427 kts 327°
2026-04-16 12:55 47.75365 13.41997 36258 ft 427 kts 327°
2026-04-16 12:55 47.80532 13.37657 36259 ft 427 kts 327°
2026-04-16 12:56 47.85697 13.33309 36270 ft 426 kts 327°
2026-04-16 12:56 47.90864 13.28949 36272 ft 426 kts 326°
2026-04-16 12:57 47.96024 13.24585 36269 ft 426 kts 327°
2026-04-16 12:57 48.01183 13.20212 36261 ft 426 kts 327°
2026-04-16 12:58 48.06321 13.15846 36264 ft 424 kts 327°
2026-04-16 12:58 48.10848 13.11991 36257 ft 424 kts 326°
2026-04-16 12:59 48.15967 13.07621 36266 ft 423 kts 326°
2026-04-16 13:00 48.23679 13.01212 36254 ft 425 kts 333°
2026-04-16 13:00 48.29291 12.98310 36259 ft 427 kts 338°
2026-04-16 13:01 48.34938 12.95570 36280 ft 426 kts 338°
2026-04-16 13:01 48.40576 12.92796 36266 ft 426 kts 338°
2026-04-16 13:02 48.46208 12.89982 36255 ft 426 kts 338°
2026-04-16 13:02 48.51824 12.87154 36260 ft 426 kts 338°
2026-04-16 13:03 48.57442 12.84315 36259 ft 426 kts 338°
2026-04-16 13:03 48.63054 12.81474 36265 ft 426 kts 338°
2026-04-16 13:04 48.67981 12.78974 36259 ft 426 kts 338°
2026-04-16 13:04 48.73593 12.76121 36251 ft 425 kts 338°
2026-04-16 13:05 48.78252 12.73747 36256 ft 425 kts 338°
2026-04-16 13:05 48.83858 12.70884 36260 ft 425 kts 338°
2026-04-16 13:06 48.89455 12.68019 36247 ft 425 kts 338°
2026-04-16 13:06 48.95959 12.64682 36247 ft 424 kts 338°
2026-04-16 13:07 49.00638 12.62275 36248 ft 424 kts 337°
2026-04-16 13:07 49.06219 12.59398 36257 ft 423 kts 337°
2026-04-16 13:08 49.11802 12.56513 36248 ft 423 kts 337°
2026-04-16 13:08 49.17378 12.53625 36246 ft 423 kts 337°
2026-04-16 13:09 49.22296 12.51072 36238 ft 423 kts 337°
2026-04-16 13:09 49.27825 12.48196 36242 ft 422 kts 338°
2026-04-16 13:10 49.33387 12.45295 36227 ft 422 kts 338°
2026-04-16 13:10 49.38929 12.42399 36224 ft 420 kts 337°
2026-04-16 13:11 49.44457 12.39502 36225 ft 419 kts 337°
2026-04-16 13:11 49.49964 12.36610 36214 ft 418 kts 337°
2026-04-16 13:12 49.55463 12.33714 36230 ft 417 kts 337°
2026-04-16 13:12 49.60945 12.30821 36221 ft 416 kts 337°
2026-04-16 13:13 49.66422 12.27923 36213 ft 415 kts 337°
2026-04-16 13:13 49.71878 12.25030 36226 ft 414 kts 337°
2026-04-16 13:14 49.76657 12.22490 36213 ft 414 kts 337°
2026-04-16 13:14 49.82098 12.19592 36216 ft 413 kts 337°
2026-04-16 13:15 49.87535 12.16689 36209 ft 412 kts 337°
2026-04-16 13:15 49.92950 12.13791 36209 ft 411 kts 337°
2026-04-16 13:16 49.98351 12.10894 36217 ft 410 kts 337°
2026-04-16 13:16 50.03750 12.07990 36228 ft 411 kts 336°
2026-04-16 13:17 50.09149 12.05079 36229 ft 411 kts 336°
2026-04-16 13:17 50.14525 12.02175 36227 ft 412 kts 336°
2026-04-16 13:18 50.19937 11.99243 36252 ft 412 kts 336°
2026-04-16 13:18 50.25394 11.96280 36239 ft 413 kts 336°
2026-04-16 13:19 50.30147 11.93694 36246 ft 413 kts 336°
2026-04-16 13:19 50.35571 11.90736 36238 ft 413 kts 336°
2026-04-16 13:20 50.40989 11.87775 36236 ft 412 kts 336°
2026-04-16 13:20 50.46401 11.84809 36230 ft 411 kts 336°
2026-04-16 13:21 50.51800 11.81843 36223 ft 411 kts 336°
2026-04-16 13:21 50.57191 11.78874 36217 ft 410 kts 336°
2026-04-16 13:22 50.62581 11.75898 36201 ft 410 kts 336°
2026-04-16 13:22 50.67957 11.72923 36207 ft 409 kts 336°
2026-04-16 13:23 50.73335 11.69940 36206 ft 409 kts 336°
2026-04-16 13:23 50.78705 11.66953 36202 ft 409 kts 336°
2026-04-16 13:24 50.83444 11.64312 36214 ft 410 kts 336°
2026-04-16 13:24 50.88818 11.61310 36200 ft 410 kts 336°
2026-04-16 13:25 50.94191 11.58301 36199 ft 410 kts 336°
2026-04-16 13:25 50.99535 11.55301 36209 ft 410 kts 335°
2026-04-16 13:26 51.04909 11.52276 36205 ft 410 kts 336°
2026-04-16 13:26 51.10288 11.49242 36198 ft 411 kts 336°
2026-04-16 13:27 51.15678 11.46193 36196 ft 411 kts 336°
2026-04-16 13:27 51.21065 11.43139 36206 ft 411 kts 335°
2026-04-16 13:28 51.26452 11.40077 36210 ft 411 kts 335°
2026-04-16 13:28 51.31852 11.37000 36200 ft 412 kts 335°
2026-04-16 13:29 51.36582 11.34298 36195 ft 412 kts 335°
2026-04-16 13:29 51.41983 11.31206 36194 ft 412 kts 335°
2026-04-16 13:30 51.47390 11.28103 36192 ft 413 kts 335°
2026-04-16 13:30 51.52796 11.24992 36200 ft 413 kts 336°
2026-04-16 13:31 51.58210 11.21869 36197 ft 414 kts 336°
2026-04-16 13:31 51.63635 11.18732 36193 ft 414 kts 336°
2026-04-16 13:32 51.69061 11.15585 36192 ft 414 kts 335°
2026-04-16 13:32 51.74482 11.12434 36191 ft 415 kts 335°
2026-04-16 13:33 51.79914 11.09268 36195 ft 415 kts 336°
2026-04-16 13:33 51.85348 11.06094 36189 ft 415 kts 336°
2026-04-16 13:34 51.90042 11.03131 36193 ft 414 kts 333°
2026-04-16 13:34 51.95316 10.99435 36196 ft 414 kts 332°
2026-04-16 13:35 52.00619 10.95670 36197 ft 423 kts 332°
2026-04-16 13:35 52.06116 10.91796 36201 ft 432 kts 333°
2026-04-16 13:36 52.11662 10.87907 36199 ft 436 kts 333°
2026-04-16 13:36 52.17176 10.84043 36190 ft 430 kts 333°
2026-04-16 13:37 52.22648 10.80199 36206 ft 424 kts 332°
2026-04-16 13:37 52.28038 10.76394 36227 ft 425 kts 333°
2026-04-16 13:38 52.33515 10.72516 36218 ft 427 kts 333°
2026-04-16 13:38 52.38937 10.68668 36215 ft 428 kts 333°
2026-04-16 13:39 52.43735 10.65255 36209 ft 429 kts 333°
2026-04-16 13:39 52.49223 10.61342 36208 ft 430 kts 333°
2026-04-16 13:40 52.54720 10.57412 36221 ft 431 kts 333°
2026-04-16 13:40 52.60223 10.53466 36200 ft 432 kts 333°
2026-04-16 13:41 52.65740 10.49500 36182 ft 433 kts 333°
2026-04-16 13:41 52.71257 10.45522 36178 ft 433 kts 333°
2026-04-16 13:42 52.76771 10.41537 36182 ft 433 kts 333°
2026-04-16 13:42 52.82285 10.37539 36181 ft 433 kts 333°
2026-04-16 13:43 52.87793 10.33535 36181 ft 432 kts 333°
2026-04-16 13:43 52.93298 10.29522 36188 ft 432 kts 333°
2026-04-16 13:44 52.97295 10.26601 36181 ft 432 kts 332°
2026-04-16 13:44 53.02487 10.22797 36186 ft 431 kts 332°
2026-04-16 13:45 53.07979 10.18764 36182 ft 431 kts 332°
2026-04-16 13:45 53.13466 10.14723 36180 ft 431 kts 332°
2026-04-16 13:46 53.18951 10.10672 36172 ft 431 kts 332°
2026-04-16 13:46 53.24391 10.06642 36168 ft 431 kts 332°
2026-04-16 13:47 53.29860 10.02580 36175 ft 430 kts 332°
2026-04-16 13:47 53.35335 9.98502 36167 ft 431 kts 332°
2026-04-16 13:48 53.40807 9.94415 36160 ft 431 kts 332°
2026-04-16 13:48 53.46279 9.90316 36187 ft 431 kts 332°
2026-04-16 13:49 53.51754 9.86203 36186 ft 431 kts 332°
2026-04-16 13:49 53.57229 9.82078 36185 ft 431 kts 332°
2026-04-16 13:50 53.62703 9.77942 36192 ft 432 kts 332°
2026-04-16 13:50 53.68190 9.73785 36161 ft 433 kts 332°
2026-04-16 13:51 53.73679 9.69615 36158 ft 433 kts 332°
2026-04-16 13:51 53.79180 9.65423 36159 ft 434 kts 332°
2026-04-16 13:52 53.84676 9.61223 36162 ft 434 kts 332°
2026-04-16 13:52 53.90189 9.56997 36176 ft 435 kts 332°
2026-04-16 13:53 53.95703 9.52759 36157 ft 436 kts 332°
2026-04-16 13:53 54.01192 9.48528 36164 ft 436 kts 332°
2026-04-16 13:54 54.06716 9.44257 36164 ft 436 kts 332°
2026-04-16 13:54 54.12230 9.39982 36165 ft 436 kts 332°
2026-04-16 13:55 54.17750 9.35688 36177 ft 436 kts 332°
2026-04-16 13:55 54.22373 9.32084 36170 ft 436 kts 332°
2026-04-16 13:56 54.27896 9.27764 36178 ft 436 kts 332°
2026-04-16 13:56 54.33371 9.23471 36166 ft 436 kts 332°
2026-04-16 13:57 54.38893 9.19127 36166 ft 437 kts 332°
2026-04-16 13:57 54.44424 9.14763 36168 ft 437 kts 332°
2026-04-16 13:58 54.52706 9.08205 36169 ft 437 kts 332°
2026-04-16 13:58 54.58221 9.03822 36178 ft 436 kts 331°
2026-04-16 13:59 54.63732 8.99429 36179 ft 436 kts 331°
2026-04-16 13:59 54.69237 8.95026 36189 ft 436 kts 332°
2026-04-16 14:00 54.74748 8.90606 36179 ft 437 kts 332°
2026-04-16 14:00 54.80264 8.86167 36182 ft 437 kts 332°
2026-04-16 14:01 54.85782 8.81716 36182 ft 438 kts 332°
2026-04-16 14:01 54.91349 8.77356 36176 ft 441 kts 336°
2026-04-16 14:02 54.97162 8.73876 36197 ft 443 kts 338°
2026-04-16 14:02 55.03042 8.70581 36189 ft 444 kts 338°
2026-04-16 14:03 55.08925 8.67219 36182 ft 445 kts 338°
2026-04-16 14:03 55.14794 8.63792 36179 ft 445 kts 338°
2026-04-16 14:04 55.20633 8.60346 36181 ft 446 kts 338°
2026-04-16 14:04 55.26510 8.56864 36184 ft 446 kts 338°
2026-04-16 14:05 55.32394 8.53367 36180 ft 446 kts 338°
2026-04-16 14:05 55.38279 8.49861 36183 ft 446 kts 338°
2026-04-16 14:06 55.44157 8.46348 36184 ft 446 kts 338°
2026-04-16 14:06 55.50042 8.42819 36186 ft 446 kts 338°
2026-04-16 14:07 55.55928 8.39279 36176 ft 447 kts 338°
2026-04-16 14:07 55.61810 8.35730 36169 ft 447 kts 337°
2026-04-16 14:08 55.67706 8.32160 36166 ft 447 kts 337°
2026-04-16 14:08 55.73599 8.28582 36166 ft 448 kts 337°
2026-04-16 14:09 55.79489 8.24994 36166 ft 448 kts 337°
2026-04-16 14:09 55.85381 8.21393 36167 ft 448 kts 337°
2026-04-16 14:10 55.91270 8.17783 36165 ft 448 kts 337°
2026-04-16 14:10 55.97154 8.14163 36168 ft 448 kts 337°
2026-04-16 14:11 56.03043 8.10530 36166 ft 448 kts 337°
2026-04-16 14:11 56.08936 8.06881 36166 ft 448 kts 337°
2026-04-16 14:12 56.14828 8.03222 36167 ft 448 kts 337°
2026-04-16 14:12 56.20680 7.99576 36165 ft 448 kts 337°
2026-04-16 14:13 56.26611 7.95868 36156 ft 448 kts 337°
2026-04-16 14:13 56.32465 7.92196 36173 ft 448 kts 337°
2026-04-16 14:14 56.38357 7.88489 36161 ft 449 kts 337°
2026-04-16 14:14 56.44255 7.84766 36150 ft 449 kts 337°
2026-04-16 14:15 56.50148 7.81033 36151 ft 449 kts 337°
2026-04-16 14:15 56.56049 7.77283 36154 ft 449 kts 337°
2026-04-16 14:16 56.61953 7.73519 36162 ft 450 kts 337°
2026-04-16 14:16 56.67860 7.69740 36156 ft 451 kts 337°
2026-04-16 14:17 56.73779 7.65941 36145 ft 451 kts 337°
2026-04-16 14:17 56.79703 7.62126 36146 ft 452 kts 337°
2026-04-16 14:18 56.85636 7.58293 36150 ft 452 kts 337°
2026-04-16 14:18 56.91569 7.54446 36134 ft 453 kts 337°
2026-04-16 14:19 56.97516 7.50577 36143 ft 453 kts 337°
2026-04-16 14:19 57.03465 7.46695 36142 ft 454 kts 337°
2026-04-16 14:20 57.09415 7.42798 36130 ft 454 kts 337°
2026-04-16 14:20 57.15362 7.38889 36143 ft 454 kts 337°
2026-04-16 14:21 57.21274 7.34991 36126 ft 455 kts 337°
2026-04-16 14:21 57.27232 7.31048 36136 ft 455 kts 336°
2026-04-16 14:22 57.33192 7.27091 36143 ft 455 kts 336°
2026-04-16 14:22 57.39155 7.23117 36138 ft 456 kts 336°
2026-04-16 14:23 57.45120 7.19129 36160 ft 456 kts 336°
2026-04-16 14:23 57.48129 7.17110 35684 ft 464 kts 336°
2026-04-16 14:23 57.51165 7.15069 35108 ft 463 kts 336°
2026-04-16 14:24 57.54194 7.13033 34470 ft 463 kts 336°
2026-04-16 14:24 57.57220 7.10995 33726 ft 464 kts 336°
2026-04-16 14:24 57.60257 7.08945 32963 ft 464 kts 336°
2026-04-16 14:24 57.63288 7.06896 32253 ft 463 kts 336°
2026-04-16 14:25 57.66306 7.04854 31712 ft 458 kts 336°
2026-04-16 14:25 57.69286 7.02835 31204 ft 453 kts 336°
2026-04-16 14:25 57.72234 7.00833 30703 ft 448 kts 336°
2026-04-16 14:25 57.75151 6.98848 30232 ft 444 kts 335°
2026-04-16 14:26 57.78040 6.96878 29670 ft 440 kts 335°
2026-04-16 14:26 57.80894 6.94928 29179 ft 434 kts 335°
2026-04-16 14:26 57.83711 6.93001 28681 ft 428 kts 335°
2026-04-16 14:26 57.86486 6.91098 28211 ft 423 kts 335°
2026-04-16 14:27 57.89234 6.89210 27739 ft 418 kts 335°
2026-04-16 14:27 57.91952 6.87340 27267 ft 414 kts 335°
2026-04-16 14:27 57.94642 6.85486 26803 ft 410 kts 335°
2026-04-16 14:27 57.97306 6.83646 26327 ft 406 kts 335°
2026-04-16 14:28 57.99947 6.81820 25874 ft 403 kts 335°
2026-04-16 14:28 58.02568 6.80004 25429 ft 400 kts 334°
2026-04-16 14:28 58.05169 6.78200 24979 ft 397 kts 334°
2026-04-16 14:28 58.07753 6.76405 24541 ft 394 kts 334°
2026-04-16 14:29 58.10322 6.74617 24135 ft 393 kts 333°
2026-04-16 14:29 58.12877 6.72836 23665 ft 392 kts 333°
2026-04-16 14:29 58.15429 6.71055 23145 ft 390 kts 333°
2026-04-16 14:29 58.17967 6.69281 22691 ft 387 kts 333°
2026-04-16 14:30 58.20486 6.67519 22244 ft 385 kts 333°
2026-04-16 14:30 58.22996 6.65759 21786 ft 384 kts 333°
2026-04-16 14:30 58.25501 6.63999 21208 ft 385 kts 333°
2026-04-16 14:30 58.28002 6.62235 20460 ft 390 kts 333°
2026-04-16 14:31 58.30582 6.60417 19890 ft 390 kts 333°
2026-04-16 14:31 58.33124 6.58629 19422 ft 389 kts 333°
2026-04-16 14:31 58.35625 6.56865 19004 ft 386 kts 333°
2026-04-16 14:31 58.38137 6.55090 18576 ft 384 kts 333°
2026-04-16 14:32 58.40510 6.52920 18076 ft 370 kts 319°
2026-04-16 14:32 58.42456 6.49883 17407 ft 356 kts 307°
2026-04-16 14:32 58.44038 6.46325 16605 ft 348 kts 298°
2026-04-16 14:32 58.45412 6.42544 15900 ft 346 kts 298°
2026-04-16 14:33 58.46770 6.38771 15221 ft 343 kts 298°
2026-04-16 14:33 58.48119 6.35023 14572 ft 341 kts 298°
2026-04-16 14:33 58.49459 6.31303 13942 ft 338 kts 298°
2026-04-16 14:33 58.50791 6.27609 13212 ft 336 kts 298°
2026-04-16 14:34 58.52117 6.23938 12534 ft 334 kts 299°
2026-04-16 14:34 58.53431 6.20298 11931 ft 331 kts 298°
2026-04-16 14:34 58.54731 6.16697 11331 ft 326 kts 298°
2026-04-16 14:34 58.56002 6.13184 10927 ft 315 kts 299°
2026-04-16 14:35 58.57227 6.09790 10559 ft 305 kts 299°
2026-04-16 14:35 58.58411 6.06501 10207 ft 295 kts 298°
2026-04-16 14:35 58.59559 6.03303 9844 ft 288 kts 297°
2026-04-16 14:35 58.60678 6.00182 9468 ft 284 kts 297°
2026-04-16 14:36 58.61801 5.97038 9121 ft 286 kts 298°
2026-04-16 14:36 58.62926 5.93888 8734 ft 285 kts 297°
2026-04-16 14:36 58.64038 5.90775 8405 ft 281 kts 298°
2026-04-16 14:36 58.65135 5.87702 8099 ft 278 kts 298°
2026-04-16 14:37 58.66224 5.84639 7815 ft 278 kts 298°
2026-04-16 14:37 58.67314 5.81573 7538 ft 277 kts 298°
2026-04-16 14:37 58.68396 5.78526 7252 ft 276 kts 298°
2026-04-16 14:37 58.69477 5.75480 6982 ft 275 kts 297°
2026-04-16 14:38 58.70552 5.72446 6696 ft 274 kts 297°
2026-04-16 14:38 58.71622 5.69425 6431 ft 273 kts 297°
2026-04-16 14:38 58.72691 5.66401 6142 ft 273 kts 297°
2026-04-16 14:38 58.73757 5.63384 5860 ft 272 kts 298°
2026-04-16 14:39 58.74815 5.60384 5582 ft 271 kts 297°
2026-04-16 14:39 58.75872 5.57381 5278 ft 271 kts 297°
2026-04-16 14:39 58.76930 5.54373 4975 ft 271 kts 297°
2026-04-16 14:39 58.77976 5.51400 4668 ft 265 kts 297°
2026-04-16 14:40 58.78995 5.48504 4385 ft 257 kts 296°
2026-04-16 14:40 58.79983 5.45690 4152 ft 248 kts 296°
2026-04-16 14:40 58.80925 5.43008 3939 ft 237 kts 297°
2026-04-16 14:40 58.81837 5.40401 3702 ft 231 kts 297°
2026-04-16 14:41 58.82721 5.37866 3542 ft 225 kts 297°
2026-04-16 14:41 58.83577 5.35415 3468 ft 216 kts 296°
2026-04-16 14:41 58.84413 5.33016 3383 ft 215 kts 296°
2026-04-16 14:41 58.85309 5.30649 3289 ft 226 kts 308°
2026-04-16 14:42 58.86752 5.29362 3161 ft 236 kts 356°
2026-04-16 14:42 58.88256 5.30185 3074 ft 220 kts 40°
2026-04-16 14:42 58.89463 5.31932 2911 ft 217 kts 43°
2026-04-16 14:42 58.90263 5.33091 2779 ft 216 kts 43°
2026-04-16 14:43 58.91251 5.35115 2557 ft 198 kts 74°
2026-04-16 14:43 58.91504 5.37531 2411 ft 175 kts 100°
2026-04-16 14:43 58.91297 5.39761 2200 ft 165 kts 115°
2026-04-16 14:43 58.90883 5.42504 1908 ft 152 kts 113°
2026-04-16 14:44 58.90692 5.43791 1756 ft 143 kts 113°
2026-04-16 14:44 58.90437 5.45519 1592 ft 129 kts 114°
2026-04-16 14:44 58.90187 5.47179 1435 ft 129 kts 113°
2026-04-16 14:44 58.89940 5.48819 1273 ft 125 kts 114°
2026-04-16 14:45 58.89699 5.50414 1096 ft 125 kts 113°
2026-04-16 14:45 58.89453 5.52038 942 ft 125 kts 113°
2026-04-16 14:45 58.89206 5.53667 789 ft 125 kts 112°
2026-04-16 14:45 58.88965 5.55289 607 ft 129 kts 111°
2026-04-16 14:46 58.88765 5.56590 474 ft 127 kts 112°
2026-04-16 14:46 58.88581 5.57810 368 ft 134 kts 110°
2026-04-16 14:46 58.88322 5.59539 176 ft 133 kts 111°
2026-04-16 14:46 58.88054 5.61308 764 ft 142 kts 110°
2026-04-16 14:47 58.87761 5.63276 1767 ft 156 kts 112°
2026-04-16 14:47 58.87439 5.65365 2654 ft 173 kts 117°
2026-04-16 14:47 58.87097 5.67592 2956 ft 174 kts 116°
2026-04-16 14:47 58.86715 5.70032 3023 ft 207 kts 116°
2026-04-16 14:48 58.85996 5.72421 2990 ft 200 kts 146°
2026-04-16 14:48 58.84807 5.73264 2995 ft 176 kts 178°
2026-04-16 14:48 58.83643 5.73086 2989 ft 162 kts 191°
2026-04-16 14:48 58.82571 5.72574 2999 ft 158 kts 192°
2026-04-16 14:49 58.81517 5.72004 2999 ft 160 kts 200°
2026-04-16 14:49 58.80657 5.70403 3016 ft 195 kts 238°
2026-04-16 14:49 58.80277 5.67777 3000 ft 208 kts 250°
2026-04-16 14:49 58.80038 5.65026 2991 ft 208 kts 252°
2026-04-16 14:50 58.79791 5.62251 3004 ft 210 kts 252°
2026-04-16 14:50 58.79547 5.59452 3004 ft 213 kts 253°
2026-04-16 14:50 58.79315 5.56628 3015 ft 214 kts 252°
2026-04-16 14:50 58.79092 5.53794 3011 ft 214 kts 252°
2026-04-16 14:51 58.79007 5.50925 2987 ft 222 kts 272°
2026-04-16 14:51 58.79729 5.48216 3019 ft 231 kts 295°
2026-04-16 14:51 58.80184 5.46909 3009 ft 230 kts 296°
2026-04-16 14:51 58.81056 5.44329 3008 ft 229 kts 295°
2026-04-16 14:53 58.88154 5.30197 2982 ft 226 kts 33°
2026-04-16 14:53 58.89414 5.31874 2845 ft 216 kts 42°
2026-04-16 14:54 58.90598 5.33583 2779 ft 213 kts 46°
2026-04-16 14:54 58.91431 5.35786 2537 ft 193 kts 83°
2026-04-16 14:54 58.91513 5.38209 2351 ft 174 kts 103°
2026-04-16 14:54 58.91254 5.40401 2121 ft 162 kts 116°
2026-04-16 14:55 58.90931 5.42407 1909 ft 153 kts 113°
2026-04-16 14:55 58.90648 5.44282 1730 ft 138 kts 114°
2026-04-16 14:55 58.90383 5.46033 1529 ft 133 kts 115°
2026-04-16 14:55 58.90118 5.47740 1392 ft 131 kts 114°
2026-04-16 14:56 58.89868 5.49375 1218 ft 126 kts 114°
2026-04-16 14:56 58.89616 5.51013 1052 ft 129 kts 113°
2026-04-16 14:56 58.89359 5.52689 884 ft 128 kts 111°
2026-04-16 14:56 58.89109 5.54314 699 ft 126 kts 111°
2026-04-16 14:57 58.88864 5.55954 542 ft 125 kts 113°
2026-04-16 14:57 58.88632 5.57538 372 ft 124 kts 112°
2026-04-16 14:57 58.88378 5.59178 216 ft 130 kts 109°
2026-04-16 14:57 58.88127 5.60826 35 ft 124 kts 110°
2026-04-16 14:58 58.87917 5.62213 24 ft 81 kts 106°
2026-04-16 14:58 58.87782 5.63103 29 ft 16 kts 107°
2026-04-16 14:58 58.87765 5.63264 30 ft 11 kts 79°
2026-04-16 14:59 58.87776 5.63296 29 ft 0 kts 44°
2026-04-16 14:59 58.87778 5.63299 29 ft 3 kts 41°
2026-04-16 14:59 58.87830 5.63294 30 ft 11 kts 356°
2026-04-16 15:00 58.87901 5.63335 29 ft 9 kts 24°
2026-04-16 15:00 58.87962 5.63371 30 ft 9 kts 353°
2026-04-16 15:00 58.88012 5.63283 28 ft 10 kts 307°
2026-04-16 15:00 58.88052 5.63175 27 ft 6 kts 305°
2026-04-16 15:01 58.88069 5.63138 26 ft 5 kts 314°
2026-04-16 15:01 58.88102 5.63074 27 ft 9 kts 315°
2026-04-16 15:01 58.88125 5.63029 24 ft 1 kts 315°
2026-04-16 15:01 58.88127 5.63026 24 ft 0 kts 315°